Lid_Strength_Index
4 5 5 5 4 2 4 9 16 7 6 14 12 13 10 9 10 8 9 10 10 12 12 13 13 14 12 10 10 13 12 13 16 14 11 11 13 15 16 21 22 21 23 20
4 5 5 5 4 2 5 10 12 7 8 17 13 11 10 9 10 9 10 11 10 10 12 14 13 12 9 9 10 11 11 15 17 16 14 13 14 14 14 16 17 22 22 19
4 5 5 5 4 2 7 9 14 11 11 10 11 12 11 11 8 9 9 10 10 11 12 11 12 12 9 9 9 7 9 14 16 19 17 14 16 14 14 15 20 20 20 18
4 5 5 5 4 3 7 9 12 9 13 11 10 10 11 12 12 9 8 10 10 11 13 13 13 11 10 9 8 10 11 15 14 14 13 13 14 14 14 16 16 18 18 17
4 5 6 5 4 3 6 10 10 9 10 10 10 10 11 11 10 10 11 11 10 10 12 12 13 11 12 12 10 11 12 15 15 15 13 13 14 14 14 14 14 15 14 14
5 5 6 6 4 5 8 6 6 8 10 10 12 11 10 10 9 8 8 9 10 11 11 10 9 9 10 10 11 13 13 14 16 20 15 15 18 15 14 14 14 13 16 13
5 5 5 6 5 5 8 6 7 10 12 12 12 11 9 9 9 10 8 8 10 9 8 8 8 9 10 10 10 10 13 13 15 18 17 22 15 12 12 13 12 12 11 11
4 5 5 6 6 4 8 6 7 9 12 11 11 11 10 9 8 9 9 8 7 7 9 12 13 12 13 11 10 10 10 13 16 19 19 16 14 13 12 13 12 11 12 11
4 5 5 5 6 5 8 8 5 7 11 12 10 10 11 12 11 10 9 7 7 9 11 13 16 18 15 15 13 10 10 12 16 18 20 20 14 11 9 10 16 10 10 9
4 4 5 5 5 6 8 8 6 7 10 9 9 9 9 9 11 12 11 9 9 9 14 16 17 17 14 17 17 15 14 13 16 17 20 17 13 11 10 17 14 9 10 11
4 4 4 5 5 5 7 8 7 7 9 9 8 8 8 7 8 11 10 11 11 11 14 15 15 15 15 16 16 16 15 16 17 15 18 21 13 12 14 9 9 10 10 11
3 3 4 4 5 5 6 9 6 4 9 9 7 7 6 6 6 7 8 10 10 10 12 13 13 14 14 15 17 14 16 14 16 15 16 12 12 9 8 9 10 10 11 11
3 3 4 4 4 4 6 8 7 7 11 10 8 9 6 5 6 5 8 7 7 8 9 11 11 13 13 15 13 15 13 12 14 13 12 12 11 10 10 10 10 9 10 11
3 3 3 4 4 5 5 9 7 7 10 11 10 4 6 3 5 5 4 6 6 6 6 9 10 11 10 12 12 13 12 11 12 13 11 10 9 9 10 9 9 10 11 11
3 4 4 4 4 5 6 8 7 6 9 11 10 7 6 4 4 4 4 5 6 7 8 9 11 9 9 12 12 13 11 12 13 13 10 11 11 10 8 8 9 11 11 12
4 4 4 5 5 5 8 10 9 5 6 10 12 6 6 4 4 4 4 5 5 6 8 9 8 7 8 12 13 10 9 8 9 11 10 9 9 9 9 10 10 11 11 12
4 5 5 5 5 6 10 12 6 3 5 10 11 9 6 4 4 5 5 5 6 6 7 8 8 8 8 10 12 11 10 9 9 8 8 8 9 10 10 11 11 12 13 13
4 5 5 3 3 4 7 6 3 4 8 8 11 10 10 5 7 8 6 7 7 7 8 8 9 8 8 12 11 11 11 11 10 10 10 10 9 11 11 12 12 13 13 13
4 4 3 5 6 7 6 2 4 4 7 10 10 11 12 6 7 6 7 7 10 7 9 10 9 10 12 12 12 12 12 12 11 11 10 10 9 9 10 12 13 14 14 13
3 3 6 8 7 2 4 5 8 8 8 9 10 7 10 7 8 10 9 8 11 13 10 8 11 11 11 11 12 12 12 11 11 12 12 12 12 11 10 10 12 13 14 13
6 7 9 6 3 5 7 10 11 10 11 9 9 10 9 6 10 10 9 12 12 14 12 12 13 13 13 12 13 12 12 11 10 11 11 10 11 12 11 10 11 13 14 14
9 8 7 7 7 9 11 12 10 11 12 8 9 8 8 8 7 9 10 12 13 15 11 13 14 14 14 14 14 14 13 11 11 10 11 11 10 11 10 9 10 12 13 13
6 8 10 10 10 13 12 14 12 12 10 10 10 10 9 8 8 11 12 13 13 11 13 15 15 14 13 14 14 14 13 11 11 12 11 11 11 9 10 12 12 13 13 13
8 11 13 12 12 11 11 12 13 11 10 10 9 10 11 9 11 10 13 12 13 16 18 17 15 14 14 14 14 13 13 12 13 12 13 13 12 11 11 12 13 13 13 14
10 10 13 12 11 11 11 11 10 10 9 10 11 11 10 11 12 12 12 13 17 15 16 15 15 15 14 14 14 15 14 14 14 14 14 14 14 13 13 13 13 13 14 14
10 11 12 12 12 11 11 11 11 10 9 10 11 12 13 13 12 13 14 15 18 16 16 17 17 15 15 15 15 14 15 15 15 15 15 15 15 15 14 14 14 14 15 15
12 12 10 11 12 12 11 10 10 9 10 13 11 14 14 13 13 14 13 14 14 14 18 18 16 16 16 16 16 15 15 16 15 15 15 15 15 15 15 16 16 16 14 15